Temp
19 19 20 20 21 22 23 24 24 25 26 26 27 27 28 28 30 30 29 35 35 33 31 31 28 30 32 29 25 29 29 32 32 33 33 34 34 35 34 32 32 30 28 28 28
18 19 20 21 21 21 22 24 24 25 25 27 27 27 28 27 27 29 35 36 36 34 32 32 33 33 33 30 32 32 32 34 35 34 34 35 34 34 33 33 31 29 29 29 29
18 18 20 21 21 22 22 23 24 26 26 27 27 27 28 27 25 33 37 36 36 35 34 34 35 36 35 32 35 36 34 36 36 35 36 35 34 35 33 32 31 29 29 30 29
18 19 19 21 22 22 22 24 24 25 26 26 27 27 27 26 33 35 35 36 34 33 32 34 35 34 33 32 36 36 37 37 36 36 36 35 35 35 35 33 32 31 30 30 29
19 19 20 21 21 22 23 24 25 25 26 26 27 27 27 27 30 36 36 35 32 32 31 34 34 33 35 33 36 36 36 37 36 36 35 36 35 35 36 33 32 31 31 30 29
18 19 20 21 22 23 24 25 25 26 26 26 27 26 24 29 36 37 36 34 34 32 34 35 35 36 34 36 35 38 36 37 36 36 36 36 35 35 35 34 33 32 31 30 30
18 19 20 21 22 23 24 25 26 26 26 26 26 24 27 29 37 37 35 35 35 34 33 36 38 38 34 35 37 38 36 36 36 36 36 36 34 34 35 34 32 32 31 31 31
18 19 20 21 22 23 25 26 27 27 26 26 26 23 26 36 37 37 37 36 36 36 36 38 40 38 34 35 35 33 33 33 36 36 37 34 31 34 34 34 32 32 32 32 31
18 19 20 21 22 23 26 27 27 27 27 26 25 25 29 36 37 38 38 38 38 37 38 39 39 36 33 33 30 29 30 31 33 36 35 35 32 33 34 33 32 32 32 32 31
18 19 20 22 23 23 26 27 27 27 26 24 25 27 30 34 37 37 38 38 37 36 36 36 35 33 31 29 27 28 29 32 29 31 32 32 32 33 34 33 32 31 31 30 31
18 19 21 22 24 23 26 25 24 25 26 29 29 31 35 36 39 38 38 37 36 36 33 34 33 31 34 32 32 32 31 30 31 30 27 28 30 33 33 33 32 31 30 30 31
18 19 20 22 24 25 23 23 31 32 28 32 32 33 35 38 36 37 39 35 34 33 34 33 33 35 37 35 33 30 31 28 25 26 28 28 24 25 26 26 29 32 31 32 31
18 19 20 23 26 27 26 30 32 32 29 31 33 34 35 37 36 35 36 35 34 33 34 33 34 38 37 34 33 32 30 30 27 25 27 27 22 21 24 27 27 32 33 33 32
18 19 20 22 25 25 28 31 32 32 27 32 33 35 36 36 34 38 37 35 35 33 34 34 37 38 37 34 36 33 34 33 32 28 28 33 27 24 26 26 29 34 32 32 33
17 19 20 19 20 21 29 30 31 31 27 36 36 39 37 35 35 35 38 36 33 34 35 34 36 36 36 37 37 37 37 36 30 29 33 34 29 28 25 28 31 32 34 34 33
18 20 19 19 20 27 29 30 31 27 29 36 36 35 35 35 35 36 36 36 36 34 34 34 37 37 37 38 39 40 38 37 37 34 32 33 28 27 27 29 32 32 32 34 34
18 22 19 16 22 27 28 28 27 27 36 36 35 35 34 34 34 35 35 34 32 31 31 34 35 36 38 36 37 39 34 29 31 30 30 30 29 27 29 31 34 35 32 34 34
19 23 24 25 26 27 28 26 27 33 36 38 38 36 34 35 34 35 34 32 33 33 31 31 32 35 37 36 36 34 33 29 32 30 32 31 29 32 31 34 32 33 31 34 35
18 21 23 26 27 27 26 25 29 33 35 35 36 36 35 36 35 34 34 33 34 33 32 31 32 36 37 38 36 34 33 34 33 33 32 31 31 34 32 32 32 31 32 33 35
14 17 24 28 28 29 25 25 29 32 33 34 33 35 33 35 35 34 33 35 36 35 35 34 32 35 37 37 36 34 35 32 30 31 31 31 31 31 30 32 32 33 33 33 36
15 23 30 30 30 26 25 28 31 33 34 34 34 33 33 33 35 35 35 37 37 37 36 34 32 35 36 35 34 34 32 33 31 31 30 30 30 33 32 34 35 36 29 35 36
17 23 30 31 26 26 26 29 29 33 34 34 34 33 33 34 33 34 36 36 38 38 35 35 33 32 33 37 36 35 32 32 28 30 30 30 32 36 35 35 37 34 37 37 37
15 22 30 31 25 27 29 31 32 32 33 34 33 33 33 32 31 33 36 38 39 37 35 35 32 30 31 33 37 35 34 34 32 31 31 30 32 34 35 36 35 37 35 36 36
16 23 27 26 28 26 27 29 29 32 32 33 32 32 31 31 32 32 35 36 37 36 33 35 34 32 30 31 35 34 35 35 33 29 30 31 34 35 36 37 38 37 35 35 36
19 24 22 23 23 23 26 27 28 29 31 31 30 32 31 30 30 30 31 31 32 30 36 35 32 34 34 36 38 37 36 35 33 32 31 33 34 35 34 35 36 36 35 34 35
19 19 20 19 23 24 25 26 28 30 29 29 29 32 31 29 28 28 28 28 29 32 31 33 31 34 32 35 36 37 38 36 35 35 35 35 38 35 34 34 35 34 35 34 34
16 17 18 19 22 23 24 26 27 28 29 29 27 27 28 28 28 29 29 29 30 30 30 31 31 31 30 33 34 34 36 37 36 35 35 34 34 40 37 36 35 34 34 34 33
Height
789 786 782 778 775 772 768 765 762 759 756 752 749 745 742 739 736 733 731 725 723 726 729 734 741 740 733 747 738 738 771 767 758 759 759 748 756 750 752 764 766 774 778 788 794
789 785 781 777 774 771 767 763 759 756 754 750 747 744 741 739 735 730 723 723 722 724 727 732 736 734 730 733 734 741 754 750 736 741 750 747 752 755 762 765 774 780 784 789 794
788 784 779 775 771 768 765 761 757 753 751 748 745 743 741 739 737 720 716 720 722 724 725 728 729 730 732 733 730 727 751 735 737 737 738 748 753 750 760 773 771 779 782 786 791
788 783 779 774 769 765 761 758 754 751 748 746 742 741 739 740 753 714 715 718 721 723 726 726 722 733 743 746 723 739 728 733 737 736 741 750 746 753 751 759 759 768 776 783 789
787 782 777 772 767 762 758 754 751 748 745 743 741 739 739 740 728 715 715 718 721 722 722 723 729 730 741 734 721 736 733 731 734 736 741 741 749 750 750 752 758 766 776 782 787
786 781 775 770 764 758 754 750 747 745 743 741 739 738 739 747 713 713 714 716 718 720 715 719 720 718 734 734 734 724 730 734 734 737 737 746 747 747 749 749 758 765 774 779 783
784 779 774 767 761 755 750 746 743 742 741 739 738 738 737 726 711 711 712 714 715 716 714 712 712 713 724 737 716 724 744 738 738 740 743 738 760 759 744 749 758 764 769 774 777
783 777 771 765 758 751 745 741 739 738 738 738 738 739 735 708 708 710 711 711 713 714 714 710 709 711 723 723 733 750 749 773 743 740 738 748 786 752 745 751 761 762 765 770 772
780 774 767 761 755 747 740 737 735 734 735 736 737 737 730 705 704 704 707 708 710 711 711 708 708 720 728 750 773 773 789 779 767 741 747 753 775 756 747 755 763 762 764 767 769
778 771 765 757 750 743 736 733 731 732 733 736 737 742 714 706 698 700 703 705 706 708 712 713 720 740 748 766 811 797 794 777 788 767 766 766 770 757 750 755 763 765 766 767 768
776 769 761 754 748 742 734 731 735 737 732 726 723 716 700 694 693 697 700 702 702 710 737 722 747 761 744 746 749 767 780 787 773 774 797 789 778 766 758 755 761 765 768 768 767
774 767 760 751 744 741 738 737 729 729 734 712 707 705 697 694 701 697 697 711 716 736 724 738 753 724 718 727 747 765 785 799 805 783 787 786 813 785 782 780 774 759 763 763 765
773 766 758 749 740 739 737 732 729 727 736 707 694 699 695 691 701 701 696 705 719 732 730 746 732 707 722 734 748 751 775 782 796 791 778 789 836 811 787 762 766 754 751 752 756
771 765 758 748 742 739 734 731 729 727 755 718 700 693 690 689 706 688 690 702 715 733 727 730 709 713 721 734 723 751 738 752 769 792 796 753 825 812 781 776 762 745 746 747 747
769 764 758 757 749 743 735 732 729 728 789 692 690 669 676 699 693 694 685 696 723 723 722 734 721 720 724 717 707 722 709 727 760 763 757 756 793 788 790 781 752 741 733 734 736
764 759 754 752 748 737 734 732 729 764 773 701 685 695 699 696 697 689 692 688 694 716 714 718 692 701 707 695 693 692 711 719 722 739 782 756 784 796 779 759 737 731 729 727 729
759 753 750 749 742 737 734 731 765 775 690 703 702 694 703 711 706 701 707 716 735 753 751 725 716 695 692 713 698 702 735 788 789 791 796 757 782 790 754 729 714 717 723 719 722
754 746 740 737 736 736 735 750 775 723 707 681 678 691 710 702 708 703 711 729 713 723 742 756 760 714 692 708 717 723 735 786 797 799 784 760 794 762 727 709 714 714 721 719 716
749 740 738 731 733 735 743 771 748 718 703 702 690 701 707 695 699 706 713 720 711 710 744 748 743 691 687 685 698 725 744 722 751 745 771 771 759 732 721 721 717 718 722 721 711
752 743 732 728 731 734 751 759 734 712 706 701 721 701 719 704 706 707 711 694 698 690 689 712 746 700 687 680 689 710 706 756 755 788 793 773 763 758 743 727 722 726 727 715 709
754 745 726 728 730 738 762 744 724 704 702 710 707 712 710 711 701 702 697 682 675 680 680 695 719 711 690 702 718 719 732 728 739 754 785 791 774 713 723 713 714 707 731 702 697
761 754 726 727 745 740 747 730 716 709 697 700 697 704 710 703 706 701 693 681 655 664 692 684 707 734 715 678 677 692 718 723 770 769 757 763 762 694 696 695 689 694 686 685 687
773 751 723 725 756 746 727 721 711 710 704 700 705 701 699 708 720 699 687 659 651 661 681 678 711 745 732 708 682 703 699 704 715 728 754 770 754 695 694 689 688 683 679 680 686
776 759 734 730 728 745 741 728 727 706 706 699 703 700 708 711 701 705 690 669 654 649 657 663 695 721 747 726 696 710 700 697 712 750 747 743 725 708 697 692 675 677 678 678 683
773 763 766 762 754 753 745 739 736 733 713 707 714 708 711 724 714 714 705 694 671 666 658 670 708 697 697 688 682 689 693 695 713 714 740 725 717 698 695 686 679 674 678 684 688
781 785 777 774 758 753 746 741 735 726 723 723 724 710 707 724 726 729 722 720 709 676 687 673 707 692 706 689 685 687 676 684 690 694 699 701 699 679 677 677 677 678 679 685 688
796 794 787 776 766 763 754 744 739 727 718 717 725 723 722 719 714 710 708 708 702 705 702 696 700 709 727 698 696 711 684 678 681 681 688 712 695 666 675 675 677 677 676 677 681
Wind_Speed
24 25 25 25 25 24 22 21 22 20 19 19 18 17 18 20 21 12 5 10 10 13 11 10 15 18 23 10 15 5 4 4 8 11 7 15 9 17 14 19 11 13 13 22 32
26 26 27 26 25 25 24 22 23 22 20 19 16 16 17 18 17 12 16 10 8 15 11 13 12 15 12 2 6 7 3 11 9 10 5 17 15 15 14 16 18 19 18 26 26
27 28 28 28 26 26 25 23 23 22 21 18 16 15 14 14 4 8 17 18 13 11 11 14 18 11 20 4 7 4 8 10 12 11 9 15 17 13 10 14 24 25 23 22 22
29 30 31 29 28 27 26 24 23 22 21 18 16 13 12 3 2 1 16 17 13 11 9 8 8 3 4 4 6 12 15 13 10 8 7 10 11 12 12 18 24 24 23 20 20
31 32 33 31 29 28 27 25 23 22 18 16 14 12 4 3 9 7 12 13 13 12 12 11 8 3 3 9 6 6 13 12 9 10 10 13 12 8 12 25 24 24 20 19 17
34 34 35 33 31 30 28 25 22 21 16 13 12 8 1 5 7 8 11 16 13 14 13 13 9 6 5 13 6 12 12 14 11 8 11 11 6 8 12 24 24 24 20 17 18
36 36 38 36 33 31 29 25 22 18 13 10 9 1 5 13 6 10 12 13 18 17 11 22 19 6 13 13 8 16 12 10 9 8 6 9 7 6 10 21 24 22 19 18 17
38 38 40 39 36 33 28 24 20 15 10 7 5 1 7 11 16 17 20 17 16 18 26 30 14 5 5 1 6 7 6 3 8 10 4 8 8 8 10 12 20 20 17 16 14
39 40 42 42 41 34 29 22 17 13 8 6 5 4 8 6 12 18 16 15 20 20 24 23 7 1 6 8 5 7 0 3 7 2 1 3 3 2 9 9 12 15 15 14 12
40 40 42 42 41 35 28 20 12 7 5 4 9 5 8 11 13 22 20 22 9 10 11 9 4 5 2 5 4 7 5 5 4 6 11 1 5 3 10 11 9 9 10 9 10
40 41 42 43 39 32 26 6 2 2 4 8 8 6 10 19 3 11 17 17 9 7 8 10 5 7 11 14 15 11 9 7 8 14 18 18 7 2 4 9 10 9 9 9 9
39 40 42 43 39 21 12 3 6 7 8 12 20 19 28 18 5 6 12 8 9 9 9 8 11 15 15 22 19 18 11 5 10 23 14 16 2 23 23 16 12 11 13 12 9
38 39 42 43 28 8 10 16 10 15 5 11 18 14 15 6 4 7 10 9 9 9 10 11 13 16 16 11 9 14 21 20 15 21 17 11 1 17 15 18 15 13 16 16 15
38 39 42 45 7 20 8 16 17 15 3 7 8 11 17 9 9 13 14 10 7 10 12 8 17 18 9 17 13 11 25 28 23 13 7 22 7 13 17 15 15 19 17 17 17
39 40 41 25 16 8 14 19 16 10 4 9 7 7 9 10 3 10 18 8 11 11 7 13 14 13 14 11 14 7 24 26 32 13 6 7 6 5 7 16 8 9 19 20 20
40 39 42 12 12 10 16 18 14 1 6 6 7 8 6 8 12 8 9 8 10 10 12 12 11 8 9 10 6 4 6 6 6 4 5 5 6 5 3 8 7 7 8 12 20
45 37 36 14 7 8 13 8 2 4 10 8 7 10 8 8 10 13 9 7 6 6 9 12 12 10 8 8 8 4 5 4 5 4 2 12 8 6 11 11 11 11 9 8 22
45 36 16 16 8 8 13 3 4 10 9 21 5 13 9 12 10 9 9 7 9 10 6 7 10 10 13 7 5 8 8 5 6 6 4 8 8 6 18 18 11 11 7 12 22
39 21 11 14 5 6 0 3 5 4 15 12 15 8 7 9 10 10 10 10 10 12 9 6 12 11 15 16 9 9 6 8 4 8 2 5 5 4 8 18 17 18 9 18 14
32 10 10 11 10 8 1 5 7 12 17 20 12 6 12 7 11 10 11 12 14 14 14 13 7 10 13 10 8 10 8 4 3 5 5 6 7 6 10 20 15 14 17 24 16
5 4 10 8 10 1 3 6 13 18 19 18 7 10 14 16 14 7 12 12 19 15 17 11 6 17 5 6 12 3 5 5 2 4 3 1 5 8 9 7 3 13 18 21 19
12 3 4 3 1 3 6 7 8 19 20 13 7 8 11 17 17 15 10 7 10 15 10 11 7 7 11 8 11 9 11 10 5 9 4 5 4 8 13 12 17 29 13 17 20
6 4 10 11 2 5 8 13 16 15 13 9 5 13 15 13 12 13 15 17 15 11 9 6 3 4 10 8 3 9 8 8 8 5 8 3 5 6 10 18 14 7 13 16 18
4 4 3 4 2 13 12 7 13 17 18 17 11 9 12 14 14 11 16 17 26 8 10 8 3 8 7 9 6 8 9 9 7 3 6 6 5 13 19 11 6 7 8 18 18
3 4 6 5 8 17 15 13 14 13 13 16 11 15 8 8 12 11 17 15 23 5 3 4 6 5 9 7 9 12 11 12 10 10 7 8 9 17 8 8 4 9 8 11 14
4 4 6 10 11 13 13 9 13 14 9 12 10 14 12 8 7 12 14 12 7 14 14 7 5 5 7 9 14 11 7 12 11 9 6 6 2 10 11 8 8 10 13 10 14
14 13 5 8 9 9 8 15 21 21 10 16 19 11 13 15 18 13 8 9 16 15 17 6 4 3 7 8 10 8 8 5 6 9 9 6 8 4 5 8 8 9 13 14 13
Wind_Direction
1 359 355 353 350 347 342 340 338 337 333 329 325 320 317 318 317 306 252 245 203 194 178 161 186 220 241 181 197 219 222 137 115 105 151 150 158 163 137 136 161 193 144 154 165
1 359 353 350 347 345 341 336 333 334 331 327 323 316 315 323 323 262 246 228 219 180 196 196 204 227 222 199 197 205 65 67 102 116 153 144 128 126 152 157 121 122 137 159 163
2 360 353 348 345 341 337 335 332 330 330 325 319 313 312 329 298 234 230 215 211 211 215 222 247 274 249 192 225 241 103 102 120 124 147 116 131 149 162 137 137 142 147 150 142
1 358 354 349 343 338 334 331 330 327 326 323 316 315 312 330 229 223 194 196 185 213 242 268 269 341 346 282 228 99 104 102 118 139 123 127 162 165 166 140 140 142 149 156 160
360 356 353 348 342 336 330 327 326 324 323 318 313 315 322 222 251 232 178 194 184 206 234 243 252 246 84 294 51 131 114 116 114 146 158 153 186 169 162 138 140 143 156 163 162
358 355 353 348 342 335 328 324 322 319 317 313 312 314 271 250 191 175 187 186 198 205 254 232 252 127 2 301 150 128 120 132 164 173 153 174 168 147 137 139 144 150 161 170 176
355 353 352 348 342 333 325 319 315 311 307 303 315 1 257 239 192 180 183 205 201 214 246 265 275 94 187 253 355 131 132 161 166 152 201 138 133 208 158 148 151 157 166 179 188
352 351 349 348 341 333 323 315 308 301 294 286 308 195 254 257 235 251 204 205 211 225 250 266 309 65 81 64 21 5 45 52 176 169 213 126 206 212 158 144 156 161 170 180 191
349 347 347 346 343 334 322 316 302 294 282 273 301 216 263 254 205 214 226 229 208 221 245 267 299 95 336 81 34 355 123 304 325 317 251 146 216 284 148 152 161 162 173 176 191
347 345 344 343 343 335 323 321 292 285 259 250 264 301 256 237 215 222 227 232 219 204 241 255 251 231 89 97 149 176 254 293 268 328 358 113 234 205 167 163 165 163 173 174 178
344 343 342 340 340 335 330 344 34 39 247 225 186 229 297 225 228 188 201 228 237 211 210 248 233 229 215 176 170 170 176 228 335 325 338 297 290 2 261 175 166 170 175 180 178
343 341 340 337 335 327 314 265 25 313 294 242 246 248 255 268 157 223 223 192 223 224 204 250 233 242 146 159 180 186 163 102 8 333 304 291 29 32 322 299 296 174 180 182 181
342 340 339 335 331 331 287 282 342 319 279 279 231 237 245 234 236 240 193 211 218 234 219 214 241 241 173 167 198 187 174 172 155 214 265 246 197 137 245 264 282 217 189 183 177
340 339 339 337 337 329 299 358 337 333 298 267 179 218 231 224 230 240 203 182 236 231 237 233 239 254 220 196 210 237 184 186 213 186 199 198 138 221 197 250 239 200 186 187 177
337 335 333 338 297 308 328 335 319 305 316 176 137 190 175 181 262 214 232 198 217 241 225 243 248 256 260 256 189 241 154 195 179 184 169 192 107 158 199 227 221 207 192 181 177
334 329 330 335 293 275 324 316 304 303 242 160 142 169 191 194 228 256 212 177 198 247 267 250 265 248 250 267 277 290 317 287 236 222 283 208 111 298 246 213 241 187 201 196 175
330 323 317 285 229 325 328 307 327 232 309 154 176 158 180 197 242 250 192 174 190 210 260 275 266 275 275 296 281 230 311 316 336 342 135 84 66 276 263 245 233 217 213 234 179
327 325 314 268 265 295 293 337 251 272 278 329 151 153 170 195 224 237 171 207 218 232 216 225 279 255 260 235 206 227 201 167 237 256 146 116 156 231 224 237 230 257 281 279 174
329 330 272 263 208 254 309 237 234 247 346 332 329 171 195 190 190 200 196 193 210 214 226 239 242 243 215 230 177 261 279 240 234 276 31 146 235 321 203 244 258 250 230 251 178
331 304 271 221 183 202 201 254 293 319 298 309 309 349 322 248 190 197 203 202 211 206 210 248 283 269 258 206 227 170 227 306 316 249 267 210 174 187 199 238 227 246 244 246 197
309 294 129 159 179 212 233 261 297 298 307 311 324 318 312 314 324 269 218 215 206 220 204 224 195 274 327 170 193 169 222 263 201 171 186 227 272 204 188 258 210 284 192 219 174
330 289 23 165 282 224 238 258 271 284 284 293 327 301 293 305 313 314 301 301 230 201 210 212 193 250 247 202 175 187 196 197 141 283 221 177 224 190 174 210 164 216 216 174 170
316 273 291 223 259 279 285 286 303 322 311 283 305 303 323 312 302 300 305 277 282 188 188 211 195 287 318 317 204 190 224 205 208 199 241 173 240 186 172 210 217 208 175 165 166
293 311 338 332 342 0 339 324 343 337 330 337 326 302 312 313 319 304 298 321 326 139 138 93 181 178 221 228 186 204 208 223 196 151 234 225 240 164 200 210 312 326 189 152 163
234 1 25 326 340 323 312 322 320 318 326 329 325 321 287 305 310 338 10 347 331 25 137 134 201 247 247 278 274 253 203 207 202 222 175 250 234 177 203 218 176 105 135 128 156
5 357 346 301 302 321 320 298 283 289 282 295 296 311 311 333 12 344 358 351 284 345 341 306 247 248 289 305 295 291 225 204 202 215 239 236 252 187 213 198 147 136 142 142 161
352 353 314 296 308 304 296 316 326 327 332 346 359 354 331 355 339 323 309 288 282 289 296 290 250 231 264 277 291 310 206 239 222 199 189 218 227 185 117 113 117 145 160 166 168